Location: Fredericton
(45.9636°N, 66.6431°W)
Time: 03:58:42
(UTC-03:00)

Envisat - Pass Details

Date: 24 January 2022
Orbit: 764 x 765 km, 98.2° (Epoch: 16 May)

Event Time Altitude Azimuth Distance (km) Brightness Sun altitude
Rises 04:52:52 0° 19° (NNE) 3,241 6.5 -31.9°
Reaches altitude 10° 04:55:18 10° 26° (NNE) 2,311 5.8 -31.5°
Maximum altitude 05:00:09 44° 98° (E) 1,048 4.0 -30.6°
Drops below altitude 10° 05:04:59 10° 171° (S) 2,295 5.5 -29.8°
Sets 05:07:23 0° 177° (S) 3,217 6.2 -29.4°
